Portland Hillsboro, OR

7:48 PM PDT on June 27, 2017 (GMT -0700)
Portland-Hillsboro

Weather History for KHIO - June, 2013

Change the Weather History Date:

Sunday, June 9, 2013

  Actual Average Record
Temperature  
Mean Temperature 61 °F 60 °F  
Max Temperature 73 °F 71 °F 95 °F (1955)
Min Temperature 48 °F 48 °F 40 °F (1962)
Degree Days  
Heating Degree Days 4 6  
Month to date heating degree days 24 58  
Since 1 July heating degree days 4655 4908  
Cooling Degree Days 0 0  
Month to date cooling degree days 5 1  
Year to date cooling degree days 11 7  
Growing Degree Days 10 (Base 50)    
Moisture  
Dew Point 46 °F    
Average Humidity 60    
Maximum Humidity 86    
Minimum Humidity 33    
Precipitation  
Precipitation 0.00 in 0.05 in 1.01 in (1933)
Month to date precipitation T 0.50  
Year to date precipitation 11.46 19.99  
Snow  
Snow 0.00 in - - ()
Month to date snowfall 0.0  
Since 1 June snowfall 0.0  
Since 1 July snowfall 0.0  
Snow Depth 0.00 in    
Sea Level Pressure  
Sea Level Pressure 30.07 in    
Wind  
Wind Speed 8 mph (NNW)    
Max Wind Speed 18 mph    
Max Gust Speed 25 mph    
Visibility 10 miles    
Events      
T = Trace of Precipitation, MM = Missing Value Source: NWS Daily Summary

Daily Weather History Graph

Daily Weather History Graph

Search for Another Location

Airport or City:

Trip Planner

Search our weather history database for the weather conditions in past years. The results will help you decide how hot, cold, wet, or windy it might be!

Date:

Astronomy

Jun. 09, 2013 Rise Set
Actual Time 5:22 AM PDT 8:59 PM PDT
Civil Twilight 4:45 AM PDT 9:37 PM PDT
Nautical Twilight 3:55 AM PDT 10:27 PM PDT
Astronomical Twilight 2:48 AM PDT 11:34 PM PDT
Moon 6:27 AM PDT (6/9) 9:46 PM PDT (6/9)
Length of Visible Light 16h 51m
Length of Day
15h 36m
New Moon, 1% of the Moon is Illuminated
Jun 9
New Moon
Jun 16
First Quarter
Jun 23
Full
Jun 29
Last Quarter
Jul 8
New

Hourly Weather History & Observations

Time (PDT) Temp. Dew Point Humidity Pressure Visibility Wind Dir Wind Speed Gust Speed Precip Events Conditions
12:53 AM 55.0 °F 46.0 °F 72% 30.09 in 10.0 mi NW 12.7 mph - N/A   Clear
1:53 AM 53.1 °F 46.0 °F 77% 30.10 in 10.0 mi NW 13.8 mph 25.3 mph N/A   Clear
2:53 AM 52.0 °F 46.0 °F 80% 30.10 in 10.0 mi WNW 8.1 mph - N/A   Clear
3:53 AM 50.0 °F 46.0 °F 86% 30.10 in 10.0 mi NW 6.9 mph - N/A   Clear
4:53 AM 50.0 °F 45.0 °F 83% 30.10 in 10.0 mi NNW 5.8 mph - N/A   Clear
5:33 AM 50.0 °F 45.0 °F 83% 30.10 in 10.0 mi Calm Calm - N/A   Mostly Cloudy
5:45 AM 50.0 °F 45.0 °F 83% 30.10 in 10.0 mi Calm Calm - N/A   Scattered Clouds
5:53 AM 48.9 °F 45.0 °F 86% 30.10 in 10.0 mi Calm Calm - N/A   Partly Cloudy
6:53 AM 54.0 °F 46.9 °F 77% 30.11 in 10.0 mi Calm Calm - N/A   Mostly Cloudy
7:53 AM 55.9 °F 46.0 °F 69% 30.11 in 10.0 mi Variable 3.5 mph - N/A   Mostly Cloudy
8:53 AM 60.1 °F 45.0 °F 57% 30.11 in 10.0 mi North 6.9 mph - N/A   Mostly Cloudy
9:00 AM 59.0 °F 46.0 °F 62% 30.11 in 10.0 mi NE 6.9 mph - N/A   Scattered Clouds
9:53 AM 62.1 °F 46.9 °F 58% 30.11 in 10.0 mi Variable 4.6 mph - N/A   Scattered Clouds
10:53 AM 63.0 °F 46.9 °F 56% 30.10 in 10.0 mi Variable 3.5 mph - N/A   Partly Cloudy
11:53 AM 64.9 °F 46.9 °F 52% 30.10 in 10.0 mi NNW 3.5 mph - N/A   Mostly Cloudy
12:53 PM 68.0 °F 48.0 °F 49% 30.09 in 10.0 mi Variable 3.5 mph - N/A   Scattered Clouds
1:53 PM 68.0 °F 48.0 °F 49% 30.06 in 10.0 mi Variable 3.5 mph - N/A   Partly Cloudy
2:53 PM 72.0 °F 43.0 °F 35% 30.04 in 10.0 mi NNW 10.4 mph - N/A   Partly Cloudy
3:53 PM 73.0 °F 43.0 °F 34% 30.03 in 10.0 mi NNW 11.5 mph - N/A   Partly Cloudy
4:53 PM 73.0 °F 46.0 °F 38% 30.01 in 10.0 mi North 9.2 mph - N/A   Partly Cloudy
5:53 PM 70.0 °F 45.0 °F 41% 30.01 in 10.0 mi NW 15.0 mph - N/A   Partly Cloudy
6:53 PM 66.9 °F 46.0 °F 47% 30.00 in 10.0 mi NW 17.3 mph 21.9 mph N/A   Clear
7:53 PM 63.0 °F 46.0 °F 54% 30.00 in 10.0 mi NNW 13.8 mph - N/A   Clear
8:53 PM 57.0 °F 46.0 °F 67% 30.01 in 10.0 mi NW 13.8 mph - N/A   Clear
9:53 PM 54.0 °F 44.1 °F 69% 30.02 in 10.0 mi WNW 9.2 mph - N/A   Clear
10:53 PM 51.1 °F 44.1 °F 77% 30.04 in 10.0 mi NW 6.9 mph - N/A   Clear
11:53 PM 51.1 °F 43.0 °F 74% 30.04 in 10.0 mi NNW 9.2 mph - N/A   Clear